EW4784 Weather Reports


Display with metric or nautical units.
time (UTC)temp
F
wind
direction
speed
MPH
gust
MPH
rain 1hr
in
rain 24hr
in
rain mn
in
humidity
%
barometer
mb
20260831004420 71 173 4.0 15.0 0.00 0.42 0.42 87 1017.3
20260831003918 71 204 3.0 12.0 0.00 0.42 0.42 87 1017.2
20260831003417 71 267 1.0 10.0 0.00 0.42 0.42 87 1017.2
20260831002916 71 186 2.0 13.0 0.00 0.42 0.42 87 1017.0
20260831002415 71 173 3.0 10.0 0.00 0.42 0.42 88 1016.9
20260831001913 71 181 4.0 14.0 0.00 0.42 0.42 88 1016.9
20260831001413 71 178 6.0 15.0 0.00 0.42 0.42 88 1016.8
20260831000912 71 181 4.0 13.0 0.00 0.42 0.42 88 1016.9
20260831000410 71 185 4.0 11.0 0.00 0.42 0.42 88 1017.0
20260830235909 71 178 4.0 8.0 0.00 0.42 0.42 88 1017.0
20260830235408 71 178 5.0 9.0 0.00 0.42 0.42 88 1017.1
20260830234907 71 179 7.0 10.0 0.00 0.42 0.42 88 1017.2
20260830234406 71 178 5.0 15.0 0.00 0.42 0.42 88 1017.3
20260830233906 71 172 2.0 8.0 0.00 0.42 0.42 88 1017.3
20260830233405 71 174 4.0 10.0 0.00 0.42 0.42 87 1017.3
20260830232904 71 181 4.0 11.0 0.00 0.42 0.42 87 1017.4
20260830232402 71 173 7.0 13.0 0.00 0.42 0.42 87 1017.4
20260830231902 71 172 3.0 9.0 0.00 0.42 0.42 87 1017.3
20260830231401 71 172 3.0 12.0 0.00 0.42 0.42 87 1017.3
20260830230859 71 178 6.0 15.0 0.00 0.42 0.42 87 1017.4
20260830230419 71 174 5.0 14.0 0.00 0.42 0.42 87 1017.5
20260830225858 71 175 3.0 15.0 0.00 0.42 0.42 87 1017.5
20260830225356 71 181 4.0 16.0 0.00 0.42 0.42 87 1017.7
20260830224856 71 183 2.0 13.0 0.00 0.42 0.42 88 1017.8
20260830224355 71 185 1.0 6.0 0.00 0.42 0.42 89 1017.8
20260830223854 71 190 1.0 6.0 0.00 0.42 0.42 89 1017.9
20260830223413 71 182 2.0 13.0 0.01 0.42 0.42 90 1017.8
20260830222851 71 179 3.0 10.0 0.01 0.42 0.42 90 1017.8
20260830222350 71 186 2.0 9.0 0.01 0.42 0.42 90 1017.8
20260830221849 71 180 2.0 7.0 0.01 0.42 0.42 91 1017.9
20260830221348 71 167 0.0 0.0 0.01 0.42 0.42 91 1018.0
20260830220908 71 182 1.0 5.0 0.01 0.42 0.42 91 1018.0
20260830220347 70 181 1.0 7.0 0.01 0.42 0.42 91 1018.0
20260830215846 70 181 1.0 5.0 0.01 0.42 0.42 91 1018.0
20260830215345 70 189 0.0 0.0 0.01 0.42 0.42 90 1018.1
20260830214843 71 189 0.0 4.0 0.01 0.42 0.42 89 1018.0
20260830214343 71 189 0.0 0.0 0.01 0.42 0.42 87 1018.1
20260830213842 72 177 1.0 7.0 0.01 0.42 0.42 85 1018.0
20260830213340 72 190 0.0 6.0 0.00 0.41 0.41 85 1018.1
20260830212839 72 186 2.0 12.0 0.00 0.41 0.41 85 1017.9
20260830212338 72 183 1.0 7.0 0.00 0.41 0.41 85 1017.8
20260830211838 72 182 1.0 10.0 0.00 0.41 0.41 86 1017.8
20260830211337 72 267 0.0 0.0 0.00 0.41 0.41 88 1017.8
20260830210835 72 185 0.0 2.0 0.00 0.41 0.41 89 1017.7
20260830210335 71 188 0.0 4.0 0.00 0.41 0.41 90 1017.7
20260830205854 71 179 1.0 7.0 0.00 0.41 0.41 90 1017.7
20260830205333 71 176 4.0 13.0 0.00 0.41 0.41 91 1017.6
20260830204852 71 185 3.0 11.0 0.00 0.41 0.41 92 1017.6
20260830204331 70 170 1.0 7.0 0.00 0.41 0.41 93 1017.5
20260830203829 70 180 2.0 11.0 0.00 0.41 0.41 93 1017.6
20260830203328 70 179 3.0 12.0 0.00 0.41 0.41 93 1017.5
20260830202848 70 190 1.0 10.0 0.00 0.41 0.41 94 1017.5
20260830202326 70 179 1.0 8.0 0.00 0.41 0.41 95 1017.6
20260830201826 70 181 5.0 14.0 0.00 0.41 0.41 95 1017.6
20260830201325 70 175 3.0 9.0 0.00 0.41 0.41 96 1017.6
20260830200824 70 177 1.0 8.0 0.00 0.41 0.41 95 1017.7
20260830200322 70 172 2.0 6.0 0.00 0.41 0.41 95 1017.6
20260830195821 70 171 2.0 7.0 0.00 0.41 0.41 96 1017.5
20260830195320 70 178 4.0 12.0 0.00 0.41 0.41 96 1017.5
20260830194819 70 172 4.0 11.0 0.00 0.41 0.41 96 1017.6
20260830194319 70 173 4.0 10.0 0.00 0.41 0.41 97 1017.6
20260830193817 70 167 1.0 5.0 0.00 0.41 0.41 97 1017.6
20260830193316 69 184 1.0 7.0 0.00 0.41 0.41 97 1017.7
20260830192815 69 189 3.0 11.0 0.00 0.41 0.41 97 1017.7
20260830192314 69 179 5.0 13.0 0.00 0.41 0.41 97 1017.7
20260830191813 69 177 5.0 19.0 0.00 0.41 0.41 97 1017.8
20260830191312 69 181 6.0 11.0 0.00 0.41 0.41 97 1017.8
20260830190811 70 179 2.0 9.0 0.00 0.41 0.41 98 1017.9
20260830190332 70 171 3.0 13.0 0.00 0.41 0.41 98 1018.0
20260830185809 69 176 1.0 5.0 0.00 0.41 0.41 98 1018.1
20260830185308 69 183 1.0 5.0 0.00 0.41 0.41 98 1018.1
20260830184807 69 180 1.0 7.0 0.00 0.41 0.41 98 1018.2
20260830184306 69 191 0.0 4.0 0.00 0.41 0.41 98 1018.1
20260830183805 69 182 1.0 6.0 0.00 0.41 0.41 98 1018.1
20260830183304 69 181 1.0 11.0 0.00 0.41 0.41 98 1018.0
20260830182824 69 185 1.0 7.0 0.00 0.41 0.41 98 1018.0
20260830182306 69 214 1.0 6.0 0.00 0.41 0.41 98 1017.9
20260830181801 69 190 4.0 13.0 0.00 0.41 0.41 98 1017.8
20260830181300 69 187 2.0 10.0 0.00 0.41 0.41 97 1017.8
20260830180759 69 187 5.0 18.0 0.00 0.41 0.41 97 1017.8
20260830180258 70 190 4.0 13.0 0.00 0.41 0.41 98 1017.8
20260830175757 70 184 5.0 22.0 0.00 0.41 0.41 98 1017.8
20260830175256 69 184 6.0 18.0 0.00 0.41 0.41 98 1017.9
20260830174755 70 187 6.0 17.0 0.00 0.41 0.41 98 1018.0
20260830174254 70 188 2.0 9.0 0.00 0.41 0.41 98 1018.0
20260830173754 70 179 4.0 17.0 0.00 0.41 0.41 99 1018.1
20260830173252 70 179 5.0 14.0 0.00 0.41 0.41 99 1018.2
20260830172751 69 188 1.0 10.0 0.00 0.41 0.41 99 1018.4
20260830172311 69 185 2.0 8.0 0.01 0.41 0.41 100 1018.6
20260830171749 67 183 1.0 12.0 0.01 0.41 0.41 99 1018.8
20260830171248 67 195 1.0 6.0 0.01 0.41 0.41 99 1018.8
20260830170747 67 182 3.0 15.0 0.01 0.41 0.41 99 1018.9
20260830170246 67 188 1.0 9.0 0.01 0.41 0.41 99 1019.0
20260830165745 67 189 1.0 9.0 0.01 0.41 0.41 99 1019.1
20260830165244 67 184 3.0 13.0 0.01 0.41 0.41 99 1019.2
20260830164742 67 187 2.0 13.0 0.01 0.41 0.41 99 1019.3
20260830164242 67 177 2.0 15.0 0.01 0.41 0.41 99 1019.5
20260830163741 67 185 2.0 6.0 0.01 0.41 0.41 100 1019.7
20260830163240 67 180 1.0 11.0 0.01 0.41 0.41 100 1019.7
20260830162739 66 184 2.0 9.0 0.01 0.41 0.41 100 1019.7
20260830162237 66 182 3.0 10.0 0.00 0.40 0.40 100 1019.9
20260830161737 66 180 2.0 7.0 0.00 0.40 0.40 100 1020.0
20260830161236 66 185 1.0 9.0 0.01 0.40 0.40 100 1020.1
20260830160735 66 175 0.0 8.0 0.01 0.40 0.40 100 1020.3
20260830160255 66 177 0.0 3.0 0.01 0.40 0.40 100 1020.4
20260830155733 66 189 0.0 5.0 0.02 0.40 0.40 99 1020.4
20260830155232 66 193 0.0 0.0 0.02 0.40 0.40 99 1020.5
20260830154752 66 181 0.0 2.0 0.04 0.40 0.40 100 1020.6
20260830154230 66 245 0.0 2.0 0.05 0.40 0.40 100 1020.6
20260830153729 66 192 0.0 5.0 0.06 0.40 0.40 99 1020.5
20260830153228 66 275 0.0 4.0 0.08 0.40 0.40 100 1020.6
20260830152726 66 257 0.0 0.0 0.10 0.40 0.40 99 1020.6
20260830152227 66 295 0.0 0.0 0.10 0.40 0.40 100 1020.7
20260830151725 66 301 0.0 0.0 0.11 0.40 0.40 99 1020.6
20260830151223 65 301 0.0 2.0 0.10 0.39 0.39 99 1020.7
20260830150722 65 287 0.0 2.0 0.11 0.39 0.39 99 1020.7
20260830150222 65 276 0.0 0.0 0.11 0.39 0.39 99 1020.7
20260830145742 65 275 0.0 6.0 0.11 0.38 0.38 99 1020.8
20260830145219 65 278 1.0 9.0 0.12 0.38 0.37 99 1020.9
20260830144718 65 277 3.0 16.0 0.11 0.36 0.36 99 1021.0
20260830144238 65 287 4.0 14.0 0.12 0.35 0.35 99 1021.0
20260830143716 65 296 4.0 14.0 0.11 0.34 0.34 99 1021.0
20260830143215 65 312 3.0 12.0 0.11 0.32 0.32 99 1020.9
20260830142715 65 299 4.0 9.0 0.10 0.30 0.30 99 1020.8
20260830142214 65 282 4.0 9.0 0.10 0.29 0.29 99 1020.7
20260830141713 65 284 5.0 12.0 0.10 0.28 0.28 99 1020.7
20260830141211 65 290 4.0 12.0 0.11 0.28 0.28 99 1020.6
20260830140711 65 293 2.0 13.0 0.12 0.27 0.27 99 1020.6
20260830140209 65 294 3.0 12.0 0.13 0.27 0.27 99 1020.5
20260830135708 66 288 3.0 17.0 0.13 0.26 0.26 99 1020.5
20260830135207 66 298 3.0 14.0 0.13 0.25 0.25 99 1020.4
20260830134728 66 295 3.0 15.0 0.13 0.24 0.23 99 1020.5
20260830134206 66 300 3.0 10.0 0.11 0.22 0.22 99 1020.5
20260830133705 66 283 4.0 14.0 0.12 0.21 0.21 99 1020.4
20260830133204 66 268 1.0 7.0 0.11 0.20 0.20 99 1020.5
20260830132703 66 276 0.0 3.0 0.10 0.19 0.19 99 1020.7
20260830132202 66 292 0.0 3.0 0.10 0.18 0.18 99 1020.7
20260830131701 66 287 1.0 4.0 0.09 0.17 0.17 99 1020.7
20260830131200 67 297 1.0 5.0 0.08 0.16 0.16 99 1020.7
20260830130720 67 266 1.0 6.0 0.06 0.13 0.13 99 1020.7
20260830130157 67 270 0.0 6.0 0.06 0.12 0.12 99 1020.6
20260830125656 67 257 0.0 2.0 0.05 0.11 0.11 99 1020.5
20260830125155 68 260 0.0 5.0 0.04 0.10 0.10 99 1020.6
20260830124655 68 273 0.0 6.0 0.03 0.10 0.10 99 1020.8
20260830124153 68 161 0.0 0.0 0.02 0.09 0.09 99 1020.8
20260830123652 68 161 0.0 0.0 0.01 0.08 0.08 99 1020.7
20260830123152 68 161 0.0 0.0 0.01 0.08 0.08 99 1020.6
20260830122650 68 161 0.0 0.0 0.01 0.08 0.08 99 1020.6
20260830122150 68 161 0.0 0.0 0.01 0.08 0.08 99 1020.5
20260830121649 68 161 0.0 0.0 0.01 0.08 0.08 99 1020.5
20260830121147 68 161 0.0 0.0 0.01 0.08 0.08 99 1020.5
20260830120646 68 161 0.0 0.0 0.01 0.08 0.08 99 1020.3
20260830120145 68 161 0.0 0.0 0.00 0.07 0.07 99 1020.1
20260830115645 68 161 0.0 0.0 0.00 0.07 0.07 99 1019.9
20260830115143 68 161 0.0 0.0 0.00 0.07 0.07 99 1019.7
20260830114703 68 161 0.0 0.0 0.00 0.07 0.07 99 1019.6
20260830114141 68 161 0.0 0.0 0.00 0.07 0.07 99 1019.4
20260830113640 68 161 0.0 0.0 0.00 0.07 0.07 99 1019.3
20260830113139 68 161 0.0 0.0 0.00 0.07 0.07 99 1019.1
20260830112639 68 161 0.0 0.0 0.00 0.07 0.07 99 1019.0
20260830112137 68 173 0.0 0.0 0.00 0.07 0.07 99 1018.9
20260830111637 68 175 0.0 2.0 0.00 0.07 0.07 99 1018.8
20260830111135 68 172 1.0 5.0 0.00 0.07 0.07 99 1018.7
20260830110635 68 184 2.0 10.0 0.00 0.07 0.07 99 1018.6
20260830110154 68 182 1.0 6.0 0.00 0.07 0.07 99 1018.6
20260830105653 68 173 1.0 8.0 0.00 0.07 0.07 98 1018.6
20260830105131 68 174 2.0 7.0 0.01 0.07 0.07 98 1018.7
20260830104630 68 183 1.0 4.0 0.01 0.07 0.07 98 1018.8
20260830104130 67 181 2.0 8.0 0.02 0.07 0.07 98 1018.8
20260830103649 67 179 2.0 9.0 0.03 0.07 0.07 98 1018.8
20260830103148 67 178 1.0 7.0 0.03 0.07 0.07 98 1018.8
20260830102626 67 179 0.0 6.0 0.03 0.07 0.07 98 1018.9
20260830102125 67 175 1.0 5.0 0.03 0.07 0.07 98 1018.9
20260830101624 67 175 0.0 4.0 0.05 0.07 0.07 98 1019.0
20260830101123 67 177 0.0 2.0 0.05 0.07 0.07 98 1019.0
20260830100622 67 178 1.0 6.0 0.05 0.07 0.07 98 1019.0
20260830100142 67 171 0.0 3.0 0.05 0.07 0.07 98 1019.0
20260830095621 67 181 0.0 3.0 0.06 0.07 0.07 98 1019.0
20260830095119 67 172 0.0 2.0 0.05 0.06 0.06 98 1019.1
20260830094618 67 162 0.0 0.0 0.05 0.06 0.06 97 1019.2
20260830094117 67 173 0.0 0.0 0.04 0.05 0.05 97 1019.4
20260830093616 67 173 0.0 0.0 0.03 0.04 0.04 97 1019.5
20260830093115 67 173 0.0 0.0 0.03 0.04 0.04 97 1019.7
20260830092613 68 173 0.0 0.0 0.03 0.04 0.04 97 1019.6
20260830092134 68 173 0.0 0.0 0.03 0.04 0.04 97 1019.4
20260830091612 68 176 1.0 8.0 0.01 0.02 0.02 97 1019.2
20260830091111 68 179 2.0 10.0 0.01 0.02 0.02 97 1019.1
20260830090611 68 178 1.0 5.0 0.01 0.02 0.02 97 1019.2
20260830090109 68 182 0.0 3.0 0.01 0.02 0.02 97 1019.5
20260830085629 68 182 0.0 0.0 0.00 0.01 0.01 97 1019.6
20260830085107 68 182 0.0 0.0 0.00 0.01 0.01 97 1019.6
20260830084607 68 182 0.0 0.0 0.00 0.01 0.01 96 1019.6
20260830084105 68 182 0.0 0.0 0.00 0.01 0.01 96 1019.8
20260830083603 68 182 0.0 0.0 0.00 0.01 0.01 96 1019.8
20260830083124 68 182 0.0 0.0 0.00 0.01 0.01 96 1019.9
20260830082602 68 182 0.0 0.0 0.00 0.01 0.01 96 1020.0
20260830082122 68 182 0.0 0.0 0.00 0.01 0.01 96 1019.9
20260830081621 68 182 0.0 0.0 0.00 0.01 0.01 96 1019.9
20260830081058 68 182 0.0 0.0 0.00 0.01 0.01 96 1019.9
20260830080558 68 182 0.0 0.0 0.00 0.01 0.01 96 1020.0
20260830080057 68 182 0.0 0.0 0.00 0.01 0.01 95 1020.0
20260830075555 68 182 0.0 0.0 0.00 0.01 0.01 95 1020.0
20260830075055 68 182 0.0 0.0 0.00 0.01 0.01 95 1020.1
20260830074553 68 182 0.0 0.0 0.00 0.01 0.01 95 1020.2
20260830074052 68 182 0.0 0.0 0.00 0.01 0.01 94 1020.2
20260830073551 68 182 0.0 0.0 0.00 0.01 0.01 94 1020.2
20260830073051 68 182 0.0 0.0 0.00 0.01 0.01 94 1020.1
20260830072550 68 182 0.0 0.0 0.00 0.01 0.01 94 1020.2
20260830072110 68 182 0.0 0.0 0.01 0.01 0.01 94 1020.1
20260830071548 68 182 0.0 0.0 0.01 0.01 0.01 94 1020.0
20260830071047 68 182 0.0 0.0 0.01 0.01 0.01 94 1020.0
20260830070546 68 182 0.0 0.0 0.01 0.01 0.01 94 1020.1
20260830070105 68 182 0.0 0.0 0.01 0.01 0.01 94 1020.1
20260830065544 68 182 0.0 0.0 0.01 0.01 0.01 94 1020.0
20260830065042 68 182 0.0 0.0 0.01 0.01 0.01 93 1020.0
20260830064542 68 182 0.0 0.0 0.01 0.01 0.01 93 1020.0
20260830064040 68 182 0.0 0.0 0.01 0.01 0.01 94 1019.9
20260830063540 68 182 0.0 0.0 0.01 0.01 0.01 94 1019.9
20260830063100 68 182 0.0 0.0 0.01 0.01 0.01 94 1019.9
20260830062538 68 294 0.0 1.0 0.01 0.01 0.01 93 1019.9
20260830062037 68 328 0.0 0.0 0.00 0.00 0.00 93 1020.0
20260830061535 68 328 0.0 0.0 0.00 0.00 0.00 93 1020.1
20260830061034 68 328 0.0 0.0 0.00 0.00 0.00 93 1020.1
20260830060534 68 328 0.0 0.0 0.00 0.00 0.00 93 1020.2
20260830060032 68 328 0.0 0.0 0.00 0.00 0.00 93 1020.2
20260830055531 68 328 0.0 0.0 0.00 0.00 0.00 93 1020.2
20260830055031 67 328 0.0 0.0 0.00 0.00 0.00 92 1020.2
20260830054529 67 328 0.0 0.0 0.00 0.00 0.00 92 1020.4
20260830054029 67 328 0.0 0.0 0.00 0.00 0.00 92 1020.5
20260830053548 67 328 0.0 0.0 0.00 0.00 0.00 91 1020.5
20260830053026 68 328 0.0 0.0 0.00 0.00 0.00 90 1020.5
20260830052526 68 297 1.0 4.0 0.00 0.00 0.00 90 1020.4
20260830052024 68 174 0.0 0.0 0.00 0.00 0.00 88 1020.5
20260830051545 69 174 0.0 0.0 0.00 0.00 0.00 87 1020.5
20260830051023 69 174 0.0 0.0 0.00 0.00 0.00 85 1020.4
20260830050522 69 174 0.0 0.0 0.00 0.00 0.00 83 1020.4
20260830050021 70 174 0.0 0.0 0.00 0.00 0.00 81 1020.3
20260830045520 70 173 0.0 0.0 0.00 0.00 0.00 80 1020.4
20260830045018 70 173 0.0 0.0 0.00 0.00 0.00 79 1020.3
20260830044517 70 173 0.0 0.0 0.00 0.00 0.00 78 1020.3
20260830044016 70 173 0.0 0.0 0.00 0.00 0.00 78 1020.2
20260830043515 71 173 0.0 0.0 0.00 0.00 0.00 77 1020.2
20260830043035 71 173 0.0 0.0 0.00 0.00 0.00 76 1020.2
20260830042513 71 173 0.0 0.0 0.00 0.00 0.00 75 1020.3
20260830042033 71 173 0.0 0.0 0.00 0.00 0.00 74 1020.3
20260830041512 71 173 0.0 0.0 0.00 0.00 0.00 73 1020.2
20260830041010 71 173 0.0 2.0 0.00 0.00 0.00 73 1020.1
20260830040509 71 172 0.0 4.0 0.00 0.00 0.00 73 1020.1
20260830040008 71 166 0.0 0.0 0.00 0.00 0.00 72 1020.0
20260830035507 71 162 0.0 2.0 0.00 0.00 0.00 72 1020.0
20260830035028 71 166 0.0 6.0 0.00 0.00 0.00 72 1019.9
20260830034505 71 180 0.0 2.0 0.00 0.00 0.00 72 1019.9
20260830034004 71 180 0.0 4.0 0.00 0.00 0.00 71 1019.9
20260830033503 71 180 0.0 0.0 0.00 0.00 0.00 71 1019.9
20260830033002 71 180 0.0 0.0 0.00 0.00 0.00 71 1019.9
20260830032501 71 182 0.0 0.0 0.00 0.00 0.00 71 1020.0
20260830032001 71 180 1.0 5.0 0.00 0.00 0.00 71 1020.0
20260830031500 71 183 0.0 2.0 0.00 0.00 0.00 75 1019.9
20260830030958 71 194 0.0 0.0 0.00 0.00 0.00 75 1019.9
20260830030458 71 194 0.0 0.0 0.00 0.00 0.00 74 1020.0
20260830025956 71 194 0.0 0.0 0.00 0.00 0.00 74 1020.0
20260830025455 71 194 0.0 0.0 0.00 0.00 0.00 72 1020.0
20260830024954 71 194 0.0 0.0 0.00 0.00 0.00 71 1020.0
20260830024515 71 194 0.0 0.0 0.00 0.00 0.00 71 1020.0
20260830023952 71 194 0.0 0.0 0.00 0.00 0.00 71 1019.9
20260830023452 71 194 0.0 0.0 0.00 0.00 0.00 71 1019.9
20260830022950 71 194 0.0 0.0 0.00 0.00 0.00 71 1019.9
20260830022510 71 194 0.0 0.0 0.00 0.00 0.00 71 1019.8
20260830021948 71 194 0.0 0.0 0.00 0.00 0.00 71 1019.9
20260830021447 71 194 0.0 0.0 0.00 0.00 0.00 72 1019.9
20260830020946 71 194 0.0 0.0 0.00 0.00 0.00 72 1019.9
20260830020446 71 194 0.0 0.0 0.00 0.00 0.00 73 1019.8
20260830015944 71 194 0.0 0.0 0.00 0.00 0.00 72 1019.8
20260830015443 71 194 0.0 0.0 0.00 0.00 0.00 73 1019.8
20260830014942 72 194 0.0 0.0 0.00 0.00 0.00 72 1019.8
20260830014441 72 194 0.0 0.0 0.00 0.00 0.00 70 1019.9
20260830013940 72 194 0.0 0.0 0.00 0.00 0.00 70 1019.8
20260830013440 72 194 0.0 0.0 0.00 0.00 0.00 69 1019.8
20260830012938 72 194 0.0 0.0 0.00 0.00 0.00 68 1019.7
20260830012437 72 194 0.0 0.0 0.00 0.00 0.00 68 1019.7
20260830011936 73 194 0.0 0.0 0.00 0.00 0.00 68 1019.7
20260830011456 73 194 0.0 0.0 0.00 0.00 0.00 65 1019.7
20260830010934 73 194 0.0 0.0 0.00 0.00 0.00 64 1019.7
20260830010434 73 194 0.0 0.0 0.00 0.00 0.00 63 1019.6
20260830005933 73 194 0.0 0.0 0.00 0.00 0.00 62 1019.6
20260830005431 73 194 0.0 0.0 0.00 0.00 0.00 61 1019.6
20260830004929 73 194 0.0 0.0 0.00 0.00 0.00 61 1019.6